Weather Service Report


598 
ASUS45 KREV 021110
RWRNV 
NEVADA REGIONAL WEATHER ROUNDUP
NATIONAL WEATHER SERVICE RENO NV
400 AM PDT THU OCT 02 2014

NOTE: "FAIR" INDICATES FEW OR NO CLOUDS BELOW 12,000 FEET WITH NO
SIGNIFICANT WEATHER AND/OR OBSTRUCTIONS TO VISIBILITY.

NVZ001-003-004-021200-
WESTERN NEVADA
  
CITY           SKY/WX    TMP DP  RH WIND       PRES   REMARKS
RENO           PTCLDY    43  29  57 W3        30.25R                  
CARSON CITY    FAIR      36  21  55 CALM      30.26S                  
MINDEN         FAIR      28  21  74 SE6       30.27                   
SLIDE MTN        N/A     48  18  29 CALM        N/A                   
FALLON         PTCLDY    37  30  75 S6        30.23R                  
LOVELOCK       PTCLDY    32  24  72 NE5       30.24R                  
HAWTHORNE      CLEAR     45  36  70 CALM      30.24S                  
$$

NVZ002-CAZ072-073-021200-
NORTHERN AND CENTRAL SIERRA
  
CITY           SKY/WX    TMP DP  RH WIND       PRES   REMARKS
S. LAKE TAHOE  PTCLDY    31  24  75 S5        30.27R                  
TRUCKEE        CLEAR     27  23  86 CALM      30.28R                  
SQUAW VLY 8000 NOT AVBL                                               
SUSANVILLE     CLEAR     36  28  75 W3        30.25R                  
BLUE CANYON    CLEAR     61  -1   8 SE3       30.19R                  
MAMMOTH LAKES  FAIR      32  16  51 W3        30.31S                  
BRIDGEPORT     FAIR      27  20  75 CALM      30.29S                  
$$

NVZ030-031-036-021200-
NORTHERN NEVADA
  
CITY           SKY/WX    TMP DP  RH WIND       PRES   REMARKS
ELKO           MOCLDY    30  24  78 CALM      30.27S                  
WINNEMUCCA     PTCLDY    30  26  85 S5        30.27R                  
WENDOVER       PTCLDY    41  34  75 NE3       30.25R                  
$$

NVZ035-037-021200-
CENTRAL NEVADA
  
CITY           SKY/WX    TMP DP  RH WIND       PRES   REMARKS
ELY            MOCLDY    28  23  81 S12       30.29R                  
EUREKA           N/A     30  20  66 S6        30.28R                  
$$

NVZ013-014-021200-
SOUTH CENTRAL NEVADA
  
CITY           SKY/WX    TMP DP  RH WIND       PRES   REMARKS
TONOPAH        PTCLDY    43  19  38 N14       30.26R                  
$$

NVZ017-020-022-021200-
SOUTHERN NEVADA
  
CITY           SKY/WX    TMP DP  RH WIND       PRES   REMARKS
LAS VEGAS      CLEAR     64  28  25 W3        30.10R                  
N. LAS VEGAS   CLEAR     62  29  28 W6        30.13R                  
NELLIS AFB     CLEAR     65  29  25 NE9       30.13R                  
HENDERSON      CLEAR     57  25  29 S5        30.16R                  
MERCURY        CLEAR     57  15  19 NE13      30.16R                  
$$

Return to Home page


Western Regional Climate Center, wrcc@dri.edu